Location: San Antonio
(29.4240°N, 98.4930°W)
Time: 08:54:51
(UTC-05:00)

ISS - All Passes

Search period start: 28 March 2017 00:00
Search period end: 07 April 2017 00:00
Orbit: 399 x 409 km, 51.6° (Epoch: 28 March)

Date Brightness Start Highest point End Pass type
(mag) Time Alt. Az. Time Alt. Az. Time Alt. Az.
28 Mar - 03:29:06 10° N 03:30:39 13° NE 03:32:13 10° ENE night (unlit)
28 Mar - 05:04:07 10° NW 05:07:19 48° SW 05:10:30 10° SSE night (unlit)
28 Mar - 20:02:55 10° SW 20:06:08 84° NW 20:09:23 10° NE daylight
29 Mar - 04:11:44 10° NW 04:15:01 66° NE 04:18:17 10° SE night (unlit)
29 Mar - 19:10:50 10° SSW 19:13:50 37° SE 19:16:53 10° ENE daylight
29 Mar - 20:48:32 10° WNW 20:50:25 14° NW 20:52:19 10° N visible
30 Mar - 03:19:40 10° NNW 03:22:36 29° NE 03:25:32 10° ESE night (unlit)
30 Mar - 04:56:47 10° W 04:58:52 16° SW 05:00:57 10° SSW night (unlit)
30 Mar - 18:19:30 10° SSE 18:21:38 16° SE 18:23:46 10° E daylight
30 Mar - 19:55:05 10° WSW 19:57:54 27° NW 20:00:44 10° NNE daylight
31 Mar - 02:28:02 10° N 02:30:05 15° NE 02:32:09 10° ENE night (unlit)
31 Mar - 04:03:35 10° WNW 04:06:38 35° SW 04:09:40 10° SSE night (unlit)
31 Mar - 19:02:16 10° SW 19:05:28 61° NW 19:08:41 10° NE daylight
01 Apr - 03:11:01 10° NW 03:14:19 90° NW 03:17:36 10° SE night (unlit)
01 Apr - 18:09:58 10° SSW 18:13:07 51° SE 18:16:17 10° NE daylight
01 Apr - 19:48:29 10° WNW 19:49:47 12° NW 19:51:06 10° N daylight
02 Apr - 02:18:49 10° NNW 02:21:54 37° NE 02:24:59 10° ESE night (unlit)
02 Apr - 03:56:43 10° W 03:58:04 12° SW 03:59:25 10° SSW night (unlit)
02 Apr - 17:18:17 10° S 17:20:50 21° SE 17:23:23 10° ENE daylight
02 Apr - 18:54:37 10° W 18:57:12 22° NW 18:59:47 10° NNE daylight
03 Apr - 01:26:58 10° N 01:29:23 19° NE 01:31:48 10° E night (unlit)
03 Apr - 03:03:00 10° WNW 03:05:50 27° SW 03:08:39 10° S night (unlit)
03 Apr - 18:01:35 10° WSW 18:04:41 45° NW 18:07:49 10° NNE daylight
04 Apr - 00:36:05 10° NNE 00:36:45 10° NE 00:37:24 10° NE night (unlit)
04 Apr - 02:10:15 10° NW 02:13:30 66° SW 02:16:45 10° SE night (unlit)
04 Apr - 17:09:04 10° SW 17:12:16 72° SE 17:15:30 10° NE daylight
05 Apr - 01:17:53 10° NNW 01:21:05 49° NE 01:24:16 10° ESE night (unlit)
05 Apr - 16:17:07 10° S 16:19:55 28° SE 16:22:45 10° ENE daylight
05 Apr - 17:54:07 10° W 17:56:23 18° NW 17:58:40 10° N daylight
06 Apr - 00:25:51 10° NNW 00:28:33 23° NE 00:31:15 10° E night (unlit)
06 Apr - 02:02:23 10° WNW 02:04:54 20° SW 02:07:25 10° S night (unlit)
06 Apr - 15:26:09 10° SSE 15:27:38 13° SE 15:29:07 10° E daylight
06 Apr - 17:00:49 10° WSW 17:03:48 34° NW 17:06:49 10° NNE daylight
06 Apr - 23:34:23 10° N 23:35:55 13° NE 23:37:27 10° ENE night (unlit)
